Location: Newark
(25.4800°N, 85.7200°E)
Time: 02:55:35
(UTC+00:00)

Falcon 9 debris - Visible Passes

Search period start: 24 July 2019 00:00
Search period end: 03 August 2019 00:00
Orbit: 431 x 439 km, 53.0° (Epoch: 23 July)

Date Brightness Start Highest point End Pass type
(mag) Time Alt. Az. Time Alt. Az. Time Alt. Az.
26 Jul 6.0 23:11:17 10° N 23:14:02 22° NE 23:16:47 10° E visible
27 Jul 3.2 14:14:31 10° SSW 14:17:52 51° SE 14:21:14 10° NE visible
27 Jul 6.7 15:54:33 10° NW 15:55:06 10° NW 15:55:39 10° NNW visible
27 Jul 6.4 22:29:47 10° N 22:31:39 14° NE 22:33:33 10° ENE visible
28 Jul 4.1 13:32:41 10° S 13:35:41 27° SE 13:38:39 10° ENE visible
28 Jul 6.2 15:10:26 10° W 15:12:41 16° NW 15:14:56 10° N visible
29 Jul 5.5 14:27:22 10° WSW 14:30:19 26° NW 14:33:17 10° NNE visible
29 Jul 3.5 22:40:52 10° NW 22:44:17 67° NE 22:47:41 10° SE visible
30 Jul 4.4 13:44:41 10° WSW 13:48:00 45° NW 13:51:20 10° NNE visible
30 Jul 4.7 21:58:48 10° NNW 22:02:00 36° NE 22:05:11 10° ESE visible
31 Jul 5.9 21:20:55 18° ENE 21:20:55 18° ENE 21:22:22 10° E visible
31 Jul 4.5 22:54:39 13° W 22:56:33 19° SW 22:59:04 10° S visible
01 Aug 6.7 13:59:52 10° NW 14:00:42 11° NW 14:01:32 10° NNW visible
